Hourly Data Report for March 30, 2019

MAYO A
YUKON TERRITORY
Current Station Operator: NAVCAN

63°36'59.000" N
135°52'06.000" W
503.80 m
2100701
71965
YMA

Download Data

Hourly Data (March 2019)
Hourly Data Report for March 30, 2019
TIME
LST
Temp Definition
°C
Dew Point Definition
°C
Rel Hum Definition
%
Precip. Amount Definition
mm

Wind Dir Definition
10's deg

Wind Spd Definition
km/h
Visibility Definition
km
Stn Press Definition
kPa
Hmdx Definition


Wind Chill Definition


Weather Definition


00:00 0.6 -6.7 58   34 10 32.2 97.05     LegendNANA
01:00 0.6 -7.0 57   35 11 32.2 97.09     Clear
02:00 -1.0 -6.5 66   28 8 32.2 97.13   -4 LegendNANA
03:00 -2.5 -6.0 77   26 5 32.2 97.15   -4 LegendNANA
04:00 -3.1 -6.4 78   33 7 32.2 97.18   -6 Mainly Clear
05:00 -2.3 -7.2 69   31 11 32.2 97.22   -6 LegendNANA
06:00 -2.4 -7.4 69   33 11 32.2 97.28   -6 LegendNANA
07:00 -3.3 -7.0 76   31 5 32.2 97.32   -5 Mostly Cloudy
08:00 -2.9 -6.4 77   31 5 40.2 97.34   -5 LegendNANA
09:00 -0.2 -6.3 63   28 3 32.2 97.34   -1 LegendNANA
10:00 1.2 -5.7 60   19 7 32.2 97.36     Mainly Clear
11:00 3.3 -5.5 53   23 5 32.2 97.36     LegendNANA
12:00 4.8 -5.3 48   23 11 32.2 97.34     LegendNANA
13:00 6.2 -5.2 44   23 5 32.2 97.32     Mainly Clear
14:00 7.0 -6.4 38   21 9 32.2 97.26     LegendNANA
15:00 7.4 -7.3 35   21 11 32.2 97.18     LegendNANA
16:00 7.8 -8.8 30   27 14 32.2 97.15     Mostly Cloudy
17:00 7.9 -11.6 24   26 16 32.2 97.12     LegendNANA
18:00 6.9 -11.1 26   24 11 32.2 97.12     LegendNANA
19:00 5.8 -10.3 31   25 8 32.2 97.15     Cloudy
20:00 4.5 -9.2 36   24 7 32.2 97.15     LegendNANA
21:00 3.1 -8.9 41   21 7 32.2 97.16     LegendNANA
22:00 2.7 -9.0 42   21 5 32.2 97.22     Mainly Clear
23:00 0.8 -8.3 51   24 7 32.2 97.22     LegendNANA

Notes on Data Quality.

Legend

  • E = Estimated
  • M = Missing
  • NA = Not Available*
  • [empty] = Indicates an unobserved value
Date modified: